Location: 22
(39.7117°N, 89.5929°W)
Time: 23:10:22
(UTC-05:00)

A-11 Canister half - Pass Details

Date: 16 June 2023
Orbit: 1523 x 1684 km, 47.3° (Epoch: 12 September)

Event Time Altitude Azimuth Distance (km) Brightness Sun altitude
Rises 23:28:19 0° 296° (WNW) 4,674 12.3 -23.4°
Reaches altitude 10° 23:31:22 10° 298° (WNW) 3,693 11.6 -23.7°
Maximum altitude 23:40:42 77° 25° (NNE) 1,575 9.0 -24.3°
Enters shadow 23:48:02 19° 110° (ESE) 3,084 10.2 -24.8°
